Tracking 19847 objects as of 15-Sep-2019
HD Live streaming from Space Station
objects crossing your sky now

GGSE 1 (GGRS)

Track GGSE 1 (GGRS) now!
10-day predictions
GGSE 1 (GGRS) is classified as:


NORAD ID: 728
Int'l Code: 1964-001B
Perigee: 899.0 km
Apogee: 922.7 km
Inclination: 69.9 °
Period: 103.1 minutes
Semi major axis: 7281 km
RCS: 0.3887 m2 (medium)
Launch date: January 11, 1964
Source: United States (US)
Launch site: AIR FORCE WESTERN TEST RANGE (AFWTR)
aabbcc
Your satellite tracking list
Your tracking list is empty




NASA's NSSDC Master Catalog

Two Line Element Set (TLE):
1   728U 64001B   19258.12864371 -.00000016  00000-0  26757-4 0  9994
2   728  69.9062 113.1350 0016248 282.5532  77.3756 13.97145217835497
Source of the keplerian elements: AFSPC